WetterOnline ( https://www.wetteronline.de )

Wetter aktuell Gießen

Aktuelles Wetter: Gießen (195m)

6-stündlich | Neueste Meldungen
Ortszeit Temperatur Wetter
Di, 29.11. 19:00 6.7° C Sprühregen
Di, 29.11. 13:00 7.4° C bedeckt
Di, 29.11. 7:00 5.6° C Regen
Di, 29.11. 1:00 5.6° C leichter Regen
Mo, 28.11. 19:00 5.3° C Sprühregen
Mo, 28.11. 13:00 4.7° C Regen
Mo, 28.11. 7:00 3.4° C bewölkt
Mo, 28.11. 1:00 4.0° C bedeckt
Ortszeit Temperatur Wetter
Di, 29.11. 21:30 5.4° C bedeckt
Di, 29.11. 21:20 5.4° C Dunst
Di, 29.11. 21:10 5.5° C Dunst
Di, 29.11. 21:00 5.5° C bedeckt
Di, 29.11. 20:50 5.5° C Dunst
Di, 29.11. 20:40 5.9° C Sprühregen
Di, 29.11. 20:30 5.8° C wolkig
Di, 29.11. 20:00 6.2° C Sprühregen
Di, 29.11. 19:30 6.3° C leichter Regen
Di, 29.11. 19:00 6.7° C Sprühregen
Di, 29.11. 18:30 6.5° C leicht bewölkt
Ortszeit Relative Feuchte Sichtweite
Di, 29.11. 19:00 100% 4.6 km
Di, 29.11. 13:00 95% 7 km
Di, 29.11. 7:00 100% 1.1 km
Di, 29.11. 1:00 100% 2.0 km
Mo, 28.11. 19:00 98% 1.8 km
Mo, 28.11. 13:00 89% 14 km
Mo, 28.11. 7:00 87% 19 km
Mo, 28.11. 1:00 84% 28 km
Ortszeit Relative Feuchte Sichtweite
Di, 29.11. 21:30 99% 6 km
Di, 29.11. 21:20 99% -
Di, 29.11. 21:10 100% -
Di, 29.11. 21:00 98% 6 km
Di, 29.11. 20:50 98% -
Di, 29.11. 20:40 99% -
Di, 29.11. 20:30 100% 2.2 km
Di, 29.11. 20:00 99% 4.6 km
Di, 29.11. 19:30 100% 2.3 km
Di, 29.11. 19:00 100% 4.6 km
Di, 29.11. 18:30 100% 5.0 km
Ortszeit Niederschlagsmenge Niederschlagsart
Di, 29.11. 19:00 0.1 l/m2 in 12 Std. Regen
Di, 29.11. 13:00 0.1 l/m2 in 6 Std. Sprühregen
Di, 29.11. 7:00 5 l/m2 in 12 Std. Regen
Di, 29.11. 1:00 3 l/m2 in 6 Std. Regen
Mo, 28.11. 19:00 0.1 l/m2 in 12 Std. Regen
Mo, 28.11. 13:00 0.1 l/m2 in 6 Std. Regen
Mo, 28.11. 7:00 0.1 l/m2 in 12 Std. Regen
Mo, 28.11. 1:00 0.1 l/m2 in 6 Std. Regen
Ortszeit Niederschlagsmenge Niederschlagsart
Di, 29.11. 21:30 0.0 l/m2 in 1 Std. -
Di, 29.11. 21:20 keine Meldung -
Di, 29.11. 21:10 keine Meldung -
Di, 29.11. 21:00 <0.05 l/m2 in 1 Std. Sprühregen
Di, 29.11. 20:50 keine Meldung -
Di, 29.11. 20:40 keine Meldung -
Di, 29.11. 20:30 <0.05 l/m2 in 1 Std. Schnee
Di, 29.11. 20:00 <0.05 l/m2 in 1 Std. Regen
Di, 29.11. 19:30 <0.05 l/m2 in 1 Std. -
Di, 29.11. 19:00 <0.05 l/m2 in 1 Std. Regen
Di, 29.11. 18:30 0.0 l/m2 in 1 Std. -
Ortszeit Stärke Spitze Richtung
km/h Bft. km/h Grad Sektor
Di, 29.11. 19:00 2 1 7 280° W
Di, 29.11. 13:00 4 1 11 90° O
Di, 29.11. 7:00 4 1 7 170° S
Di, 29.11. 1:00 4 1 7 130° SO
Mo, 28.11. 19:00 2 1 15 140° SO
Mo, 28.11. 13:00 7 2 22 110° O
Mo, 28.11. 7:00 9 2 19 160° S
Mo, 28.11. 1:00 7 2 22 130° SO
Ortszeit Stärke Spitze Richtung
km/h Bft. km/h Grad Sektor
Di, 29.11. 21:30 4 1 7 250° W
Di, 29.11. 21:20 4 1 - 250° W
Di, 29.11. 21:10 4 1 - 260° W
Di, 29.11. 21:00 4 1 4 260° W
Di, 29.11. 20:50 4 1 - 260° W
Di, 29.11. 20:40 4 1 - 270° W
Di, 29.11. 20:30 2 1 4 250° W
Di, 29.11. 20:00 0 0 4 - -
Di, 29.11. 19:30 4 1 4 210° SW
Di, 29.11. 19:00 2 1 6 280° W
Di, 29.11. 18:30 4 1 7 270° W
Ortszeit Untergrenze Bedeckung Gattung
total tief tief mittel hoch
Di, 29.11. 19:00 1410 m 8/8 8/8 - - -
Di, 29.11. 13:00 120 m 8/8 8/8 - - -
Di, 29.11. 7:00 30 m 8/8 8/8 - - -
Di, 29.11. 1:00 150 m 8/8 8/8 - - -
Mo, 28.11. 19:00 120 m 8/8 8/8 - - -
Mo, 28.11. 13:00 660 m 8/8 8/8 - - -
Mo, 28.11. 7:00 3300 m 7/8 7/8 - - -
Mo, 28.11. 1:00 3000 m 8/8 8/8 - - -
Ortszeit Bedeckungsgrad in Achtel und Wolkenuntergrenze
Di, 29.11. 21:30 6(1140m) 7(1440m) 8(1500m)
Di, 29.11. 21:20 6(1140m) 7(1440m) 8(1500m)
Di, 29.11. 21:10 8
Di, 29.11. 21:00 8(1170m)
Di, 29.11. 20:50 8(1170m)
Di, 29.11. 20:40 7
Di, 29.11. 20:30 2(1080m) 4(1500m) 5(1800m)
Di, 29.11. 20:00 5(1170m) 7(1500m)
Di, 29.11. 19:30 6(1320m)
Di, 29.11. 19:00 8(1410m)
Di, 29.11. 18:30 2(1410m)
Ortszeit Luftdruck NN (hPa) Tendenz (hPa in 3 Std.)
Di, 29.11. 19:00 1020 + 1,0
Di, 29.11. 13:00 1018 + 0,6
Di, 29.11. 7:00 1016 + 1,1
Di, 29.11. 1:00 1015 + 0,5
Mo, 28.11. 19:00 1014 + 0,5
Mo, 28.11. 13:00 1014 - 0,4
Mo, 28.11. 7:00 1014 - 0,8
Mo, 28.11. 1:00 1017 - 1,9
Ortszeit Luftdruck NN (hPa) Tendenz (hPa in 3 Std.)
Di, 29.11. 21:30 1021 + 1,0
Di, 29.11. 21:20 1021 keine Meldung
Di, 29.11. 21:10 1021 keine Meldung
Di, 29.11. 21:00 1021 + 1,0
Di, 29.11. 20:50 1021 keine Meldung
Di, 29.11. 20:40 1021 keine Meldung
Di, 29.11. 20:30 1021 + 1,0
Di, 29.11. 20:00 1021 + 1,2
Di, 29.11. 19:30 1020 + 1,1
Di, 29.11. 19:00 1020 + 1,0
Di, 29.11. 18:30 1020 + 0,9
Ortszeit Schneehöhe (cm)
Di, 29.11. 19:00 0
Di, 29.11. 13:00 0
Di, 29.11. 7:00 0
Di, 29.11. 1:00 0
Mo, 28.11. 19:00 0
Mo, 28.11. 13:00 0
Mo, 28.11. 7:00 0
Mo, 28.11. 1:00 0
Ortszeit Schneehöhe (cm)
Di, 29.11. 21:30 0
Di, 29.11. 21:20 0
Di, 29.11. 21:10 0
Di, 29.11. 21:00 0
Di, 29.11. 20:50 0
Di, 29.11. 20:40 0
Di, 29.11. 20:30 0
Di, 29.11. 20:00 0
Di, 29.11. 19:30 0
Di, 29.11. 19:00 0
Di, 29.11. 18:30 0
Link zu dieser Seite / Seite empfehlen

Das Wetter in ...